QPF
0.00 0.00 0.00 0.00 0.00 0.00 0.00 0.00 0.00 0.00 0.01 0.01 0.00 0.00 0.00 0.00 0.00 0.00 0.00 0.00 0.00 0.00 0.00 0.00 0.00 0.00 0.00 0.00 0.00 0.01 0.01 0.01 0.01 0.01 0.02 0.02 0.03 0.03 0.03 0.02 0.02 0.03 0.04 0.06
0.00 0.00 0.00 0.00 0.00 0.00 0.00 0.00 0.00 0.00 0.01 0.01 0.00 0.00 0.00 0.00 0.00 0.00 0.00 0.00 0.00 0.00 0.00 0.00 0.00 0.00 0.00 0.00 0.00 0.00 0.00 0.01 0.01 0.01 0.02 0.02 0.02 0.02 0.02 0.03 0.01 0.01 0.02 0.05
0.00 0.00 0.00 0.00 0.00 0.00 0.00 0.00 0.00 0.00 0.00 0.00 0.00 0.00 0.00 0.00 0.00 0.00 0.00 0.00 0.00 0.00 0.00 0.00 0.00 0.01 0.01 0.01 0.01 0.00 0.01 0.01 0.01 0.01 0.01 0.01 0.01 0.01 0.01 0.02 0.01 0.01 0.01 0.02
0.00 0.00 0.00 0.00 0.00 0.00 0.00 0.00 0.00 0.00 0.00 0.00 0.00 0.00 0.00 0.00 0.00 0.00 0.00 0.00 0.00 0.00 0.01 0.01 0.01 0.01 0.01 0.02 0.02 0.01 0.01 0.01 0.01 0.01 0.01 0.01 0.01 0.01 0.02 0.02 0.02 0.02 0.03 0.03
0.00 0.00 0.00 0.00 0.00 0.00 0.00 0.00 0.00 0.01 0.01 0.00 0.00 0.00 0.00 0.00 0.00 0.00 0.00 0.00 0.00 0.01 0.03 0.03 0.02 0.02 0.02 0.02 0.02 0.02 0.01 0.02 0.02 0.01 0.01 0.00 0.01 0.01 0.03 0.04 0.05 0.04 0.04 0.03
0.00 0.00 0.00 0.00 0.00 0.00 0.00 0.00 0.00 0.01 0.01 0.00 0.00 0.00 0.00 0.00 0.00 0.00 0.00 0.00 0.00 0.01 0.03 0.02 0.02 0.01 0.01 0.01 0.01 0.02 0.02 0.02 0.02 0.02 0.01 0.02 0.02 0.02 0.04 0.06 0.05 0.05 0.04 0.05
0.00 0.00 0.00 0.00 0.00 0.00 0.01 0.00 0.00 0.00 0.00 0.00 0.00 0.00 0.00 0.00 0.00 0.00 0.00 0.00 0.00 0.00 0.01 0.01 0.01 0.01 0.01 0.00 0.01 0.02 0.02 0.02 0.02 0.02 0.02 0.02 0.03 0.03 0.04 0.06 0.07 0.06 0.06 0.07
0.00 0.00 0.00 0.00 0.00 0.00 0.00 0.00 0.00 0.00 0.00 0.00 0.00 0.00 0.01 0.01 0.00 0.01 0.01 0.01 0.00 0.01 0.01 0.01 0.01 0.01 0.01 0.01 0.01 0.02 0.02 0.02 0.01 0.01 0.02 0.01 0.01 0.01 0.02 0.04 0.07 0.08 0.07 0.07
0.01 0.00 0.00 0.00 0.00 0.00 0.00 0.00 0.00 0.00 0.00 0.00 0.00 0.00 0.01 0.01 0.01 0.01 0.01 0.02 0.01 0.01 0.00 0.00 0.01 0.01 0.01 0.01 0.01 0.01 0.01 0.01 0.01 0.01 0.01 0.01 0.01 0.02 0.02 0.03 0.03 0.04 0.04 0.06
0.01 0.00 0.00 0.00 0.00 0.00 0.00 0.00 0.00 0.00 0.00 0.00 0.00 0.01 0.01 0.01 0.01 0.01 0.02 0.02 0.01 0.01 0.00 0.00 0.00 0.01 0.01 0.01 0.01 0.01 0.01 0.01 0.01 0.01 0.01 0.02 0.02 0.03 0.04 0.02 0.02 0.02 0.02 0.03
0.00 0.00 0.00 0.00 0.00 0.00 0.00 0.00 0.00 0.00 0.00 0.00 0.00 0.01 0.01 0.02 0.01 0.01 0.01 0.02 0.01 0.00 0.00 0.00 0.00 0.01 0.01 0.01 0.01 0.01 0.01 0.02 0.02 0.02 0.02 0.03 0.03 0.04 0.05 0.02 0.02 0.03 0.04 0.04
0.00 0.00 0.00 0.00 0.00 0.00 0.00 0.00 0.00 0.00 0.00 0.00 0.00 0.00 0.01 0.03 0.02 0.02 0.02 0.02 0.01 0.00 0.01 0.01 0.01 0.01 0.01 0.01 0.01 0.01 0.02 0.03 0.03 0.03 0.02 0.03 0.07 0.09 0.07 0.04 0.03 0.04 0.05 0.05
0.00 0.00 0.00 0.00 0.00 0.00 0.00 0.00 0.00 0.00 0.00 0.00 0.00 0.01 0.01 0.03 0.02 0.02 0.01 0.01 0.01 0.01 0.01 0.01 0.01 0.02 0.02 0.02 0.02 0.02 0.03 0.04 0.04 0.06 0.08 0.11 0.11 0.09 0.07 0.05 0.05 0.06 0.06 0.06
0.00 0.00 0.00 0.00 0.00 0.00 0.00 0.00 0.00 0.00 0.00 0.00 0.01 0.01 0.01 0.03 0.03 0.02 0.01 0.01 0.01 0.01 0.01 0.01 0.02 0.03 0.03 0.03 0.02 0.03 0.04 0.07 0.08 0.12 0.14 0.11 0.07 0.05 0.05 0.04 0.04 0.05 0.06 0.06
0.00 0.00 0.00 0.00 0.00 0.00 0.00 0.00 0.00 0.00 0.00 0.00 0.00 0.00 0.01 0.02 0.03 0.03 0.03 0.02 0.02 0.01 0.02 0.02 0.03 0.03 0.03 0.02 0.02 0.03 0.07 0.13 0.13 0.11 0.09 0.07 0.06 0.05 0.05 0.04 0.04 0.04 0.03 0.03
0.00 0.00 0.00 0.00 0.00 0.00 0.00 0.00 0.00 0.00 0.00 0.00 0.00 0.00 0.00 0.01 0.02 0.03 0.03 0.02 0.03 0.04 0.04 0.03 0.03 0.03 0.02 0.02 0.02 0.04 0.07 0.13 0.12 0.08 0.07 0.07 0.07 0.08 0.08 0.07 0.06 0.05 0.04 0.03
0.00 0.01 0.01 0.01 0.00 0.00 0.00 0.00 0.00 0.00 0.00 0.00 0.00 0.00 0.01 0.01 0.01 0.02 0.02 0.02 0.02 0.02 0.02 0.02 0.02 0.02 0.03 0.02 0.03 0.04 0.06 0.08 0.08 0.06 0.05 0.07 0.10 0.11 0.09 0.08 0.06 0.04 0.03 0.03
0.00 0.01 0.01 0.01 0.01 0.00 0.00 0.00 0.00 0.00 0.00 0.01 0.01 0.01 0.01 0.01 0.01 0.01 0.01 0.01 0.02 0.02 0.02 0.02 0.02 0.03 0.04 0.03 0.03 0.04 0.05 0.05 0.04 0.04 0.04 0.06 0.09 0.08 0.08 0.07 0.05 0.03 0.03 0.02
0.00 0.00 0.00 0.00 0.00 0.00 0.00 0.00 0.00 0.00 0.00 0.00 0.01 0.01 0.01 0.01 0.01 0.01 0.02 0.01 0.01 0.01 0.02 0.02 0.03 0.04 0.04 0.03 0.03 0.03 0.03 0.03 0.03 0.03 0.03 0.03 0.05 0.05 0.05 0.04 0.03 0.03 0.03 0.03
0.00 0.00 0.00 0.00 0.00 0.00 0.00 0.00 0.00 0.01 0.01 0.01 0.01 0.01 0.01 0.01 0.01 0.01 0.02 0.03 0.03 0.02 0.02 0.03 0.06 0.07 0.05 0.02 0.02 0.03 0.03 0.03 0.02 0.03 0.03 0.02 0.02 0.02 0.02 0.02 0.03 0.03 0.03 0.04
0.00 0.00 0.00 0.00 0.01 0.01 0.00 0.00 0.01 0.01 0.01 0.01 0.01 0.01 0.01 0.01 0.01 0.01 0.02 0.04 0.04 0.03 0.03 0.04 0.04 0.04 0.03 0.02 0.02 0.03 0.02 0.02 0.02 0.03 0.03 0.03 0.03 0.02 0.02 0.03 0.04 0.05 0.04 0.06
0.00 0.00 0.00 0.00 0.01 0.01 0.00 0.00 0.01 0.01 0.01 0.01 0.01 0.01 0.01 0.01 0.01 0.01 0.02 0.03 0.04 0.03 0.02 0.03 0.04 0.03 0.03 0.02 0.03 0.03 0.03 0.03 0.03 0.04 0.04 0.05 0.06 0.06 0.05 0.05 0.05 0.06 0.06 0.06
0.00 0.01 0.01 0.01 0.00 0.00 0.00 0.01 0.01 0.01 0.01 0.01 0.01 0.01 0.01 0.01 0.01 0.01 0.01 0.01 0.02 0.02 0.02 0.03 0.04 0.04 0.05 0.05 0.04 0.04 0.04 0.05 0.05 0.06 0.06 0.08 0.10 0.09 0.09 0.07 0.07 0.07 0.06 0.06
0.01 0.01 0.01 0.01 0.01 0.01 0.01 0.01 0.01 0.01 0.01 0.01 0.01 0.01 0.00 0.01 0.01 0.01 0.01 0.01 0.02 0.03 0.03 0.03 0.04 0.05 0.06 0.08 0.08 0.08 0.08 0.07 0.06 0.06 0.06 0.07 0.09 0.10 0.10 0.09 0.08 0.07 0.06 0.05
0.01 0.01 0.01 0.01 0.01 0.01 0.01 0.01 0.01 0.01 0.01 0.01 0.01 0.01 0.01 0.01 0.01 0.01 0.01 0.01 0.02 0.05 0.08 0.07 0.05 0.05 0.07 0.08 0.10 0.11 0.11 0.10 0.08 0.07 0.07 0.07 0.07 0.08 0.10 0.10 0.08 0.07 0.06 0.05
0.00 0.00 0.01 0.01 0.01 0.01 0.01 0.02 0.02 0.01 0.01 0.01 0.01 0.01 0.02 0.02 0.02 0.02 0.01 0.01 0.01 0.03 0.05 0.07 0.08 0.09 0.09 0.09 0.10 0.11 0.10 0.08 0.08 0.08 0.07 0.07 0.07 0.08 0.10 0.12 0.12 0.11 0.10 0.08
MSLP
1010.42 1011.15 1011.66 1011.96 1012.08 1012.09 1012.05 1011.99 1011.93 1011.86 1011.73 1011.51 1011.17 1010.71 1010.16 1009.58 1009.04 1008.61 1008.34 1008.27 1008.36 1008.59 1008.89 1009.20 1009.47 1009.68 1009.83 1009.96 1010.11 1010.33 1010.64 1011.05 1011.52 1012.02 1012.48 1012.85 1013.11 1013.24 1013.26 1013.22 1013.18 1013.18 1013.26 1013.45
1010.84 1011.42 1011.78 1011.97 1012.04 1012.07 1012.12 1012.22 1012.35 1012.45 1012.45 1012.29 1011.92 1011.34 1010.59 1009.76 1008.95 1008.28 1007.80 1007.57 1007.58 1007.77 1008.08 1008.41 1008.70 1008.92 1009.07 1009.19 1009.33 1009.53 1009.85 1010.28 1010.79 1011.35 1011.87 1012.30 1012.60 1012.75 1012.76 1012.70 1012.62 1012.57 1012.62 1012.78
1011.02 1011.45 1011.66 1011.74 1011.78 1011.87 1012.05 1012.33 1012.67 1012.96 1013.12 1013.02 1012.63 1011.93 1010.99 1009.90 1008.83 1007.89 1007.19 1006.79 1006.69 1006.83 1007.13 1007.48 1007.81 1008.06 1008.23 1008.35 1008.48 1008.68 1009.00 1009.44 1009.99 1010.59 1011.16 1011.65 1011.99 1012.17 1012.19 1012.12 1012.01 1011.93 1011.94 1012.07
1010.96 1011.23 1011.32 1011.33 1011.38 1011.55 1011.89 1012.39 1012.95 1013.46 1013.76 1013.74 1013.33 1012.51 1011.37 1010.04 1008.69 1007.49 1006.56 1005.99 1005.77 1005.86 1006.15 1006.53 1006.90 1007.19 1007.39 1007.53 1007.65 1007.84 1008.15 1008.58 1009.14 1009.76 1010.37 1010.89 1011.27 1011.48 1011.53 1011.46 1011.35 1011.25 1011.22 1011.31
1010.68 1010.82 1010.83 1010.81 1010.91 1011.21 1011.74 1012.47 1013.26 1013.97 1014.42 1014.46 1014.01 1013.09 1011.76 1010.19 1008.59 1007.14 1006.00 1005.26 1004.94 1004.97 1005.26 1005.68 1006.09 1006.43 1006.67 1006.82 1006.94 1007.11 1007.38 1007.78 1008.30 1008.90 1009.51 1010.04 1010.45 1010.69 1010.77 1010.72 1010.61 1010.51 1010.47 1010.53
1010.25 1010.29 1010.25 1010.27 1010.46 1010.92 1011.65 1012.60 1013.61 1014.50 1015.06 1015.14 1014.66 1013.63 1012.14 1010.36 1008.53 1006.87 1005.55 1004.67 1004.27 1004.27 1004.57 1005.03 1005.50 1005.89 1006.16 1006.32 1006.43 1006.54 1006.75 1007.07 1007.52 1008.06 1008.62 1009.14 1009.56 1009.82 1009.92 1009.90 1009.82 1009.72 1009.68 1009.72
1009.72 1009.71 1009.68 1009.76 1010.08 1010.71 1011.64 1012.79 1013.97 1014.99 1015.63 1015.73 1015.20 1014.07 1012.43 1010.49 1008.50 1006.69 1005.24 1004.28 1003.83 1003.82 1004.15 1004.65 1005.18 1005.62 1005.92 1006.08 1006.15 1006.20 1006.31 1006.52 1006.86 1007.29 1007.78 1008.24 1008.63 1008.89 1009.02 1009.03 1008.97 1008.90 1008.87 1008.91
1009.15 1009.13 1009.15 1009.33 1009.80 1010.58 1011.68 1012.97 1014.26 1015.35 1016.01 1016.10 1015.52 1014.31 1012.58 1010.54 1008.46 1006.58 1005.08 1004.09 1003.64 1003.66 1004.03 1004.58 1005.16 1005.64 1005.95 1006.10 1006.12 1006.08 1006.07 1006.15 1006.35 1006.65 1007.02 1007.40 1007.73 1007.98 1008.11 1008.14 1008.11 1008.06 1008.04 1008.08
1008.57 1008.59 1008.68 1008.98 1009.57 1010.49 1011.69 1013.05 1014.38 1015.47 1016.11 1016.14 1015.51 1014.25 1012.49 1010.44 1008.36 1006.50 1005.03 1004.09 1003.69 1003.76 1004.18 1004.78 1005.40 1005.90 1006.22 1006.34 1006.30 1006.17 1006.04 1005.98 1006.02 1006.17 1006.41 1006.68 1006.94 1007.14 1007.25 1007.29 1007.27 1007.23 1007.22 1007.26
1008.01 1008.08 1008.26 1008.66 1009.36 1010.35 1011.59 1012.95 1014.23 1015.25 1015.80 1015.77 1015.10 1013.83 1012.11 1010.14 1008.16 1006.41 1005.06 1004.23 1003.92 1004.07 1004.55 1005.19 1005.83 1006.33 1006.64 1006.73 1006.63 1006.42 1006.17 1005.98 1005.87 1005.88 1005.98 1006.13 1006.30 1006.43 1006.50 1006.51 1006.48 1006.43 1006.40 1006.42
1007.47 1007.61 1007.88 1008.37 1009.12 1010.12 1011.32 1012.58 1013.74 1014.62 1015.05 1014.94 1014.25 1013.03 1011.42 1009.61 1007.83 1006.29 1005.13 1004.46 1004.28 1004.51 1005.04 1005.70 1006.33 1006.82 1007.11 1007.16 1007.01 1006.74 1006.41 1006.12 1005.90 1005.78 1005.76 1005.79 1005.85 1005.89 1005.89 1005.84 1005.75 1005.66 1005.59 1005.56
1006.96 1007.17 1007.53 1008.07 1008.83 1009.78 1010.86 1011.96 1012.92 1013.61 1013.90 1013.71 1013.02 1011.90 1010.46 1008.90 1007.39 1006.12 1005.21 1004.74 1004.69 1005.00 1005.56 1006.21 1006.81 1007.27 1007.52 1007.54 1007.36 1007.06 1006.70 1006.35 1006.06 1005.85 1005.72 1005.65 1005.59 1005.52 1005.42 1005.27 1005.10 1004.93 1004.77 1004.67
1006.51 1006.80 1007.22 1007.78 1008.49 1009.33 1010.23 1011.11 1011.83 1012.30 1012.43 1012.16 1011.50 1010.52 1009.32 1008.05 1006.86 1005.91 1005.27 1005.01 1005.09 1005.47 1006.02 1006.63 1007.19 1007.59 1007.80 1007.80 1007.62 1007.33 1006.97 1006.62 1006.30 1006.05 1005.84 1005.67 1005.50 1005.31 1005.07 1004.80 1004.50 1004.21 1003.94 1003.74
1006.16 1006.52 1006.97 1007.52 1008.14 1008.82 1009.50 1010.11 1010.56 1010.80 1010.76 1010.44 1009.83 1009.02 1008.08 1007.13 1006.29 1005.66 1005.30 1005.23 1005.44 1005.85 1006.38 1006.93 1007.41 1007.75 1007.91 1007.91 1007.76 1007.51 1007.20 1006.88 1006.58 1006.31 1006.06 1005.80 1005.52 1005.19 1004.82 1004.39 1003.95 1003.51 1003.11 1002.78
1005.95 1006.36 1006.83 1007.32 1007.83 1008.31 1008.73 1009.05 1009.23 1009.23 1009.04 1008.66 1008.12 1007.49 1006.82 1006.19 1005.70 1005.38 1005.28 1005.39 1005.69 1006.11 1006.60 1007.07 1007.46 1007.74 1007.88 1007.89 1007.78 1007.60 1007.38 1007.13 1006.87 1006.61 1006.32 1005.99 1005.60 1005.14 1004.61 1004.03 1003.43 1002.83 1002.29 1001.84
1005.92 1006.36 1006.80 1007.21 1007.56 1007.82 1007.98 1008.01 1007.91 1007.69 1007.35 1006.94 1006.47 1006.01 1005.60 1005.28 1005.10 1005.07 1005.20 1005.46 1005.83 1006.25 1006.69 1007.08 1007.40 1007.62 1007.74 1007.78 1007.74 1007.65 1007.51 1007.35 1007.16 1006.91 1006.60 1006.21 1005.72 1005.13 1004.45 1003.72 1002.97 1002.23 1001.56 1000.99
1006.06 1006.49 1006.88 1007.17 1007.35 1007.38 1007.27 1007.02 1006.67 1006.24 1005.78 1005.33 1004.94 1004.63 1004.45 1004.41 1004.50 1004.72 1005.04 1005.43 1005.86 1006.28 1006.67 1007.00 1007.26 1007.45 1007.57 1007.65 1007.69 1007.69 1007.66 1007.58 1007.44 1007.21 1006.88 1006.43 1005.85 1005.15 1004.35 1003.49 1002.62 1001.78 1001.01 1000.36
1006.34 1006.72 1007.02 1007.17 1007.15 1006.96 1006.59 1006.09 1005.51 1004.90 1004.34 1003.87 1003.54 1003.37 1003.39 1003.57 1003.89 1004.32 1004.80 1005.31 1005.79 1006.22 1006.59 1006.88 1007.12 1007.31 1007.46 1007.59 1007.70 1007.79 1007.85 1007.84 1007.75 1007.53 1007.18 1006.68 1006.03 1005.24 1004.35 1003.42 1002.47 1001.56 1000.75 1000.05
1006.68 1006.97 1007.14 1007.13 1006.92 1006.51 1005.92 1005.21 1004.43 1003.69 1003.04 1002.56 1002.28 1002.23 1002.40 1002.77 1003.28 1003.87 1004.50 1005.10 1005.65 1006.12 1006.50 1006.80 1007.05 1007.26 1007.46 1007.65 1007.84 1008.01 1008.13 1008.18 1008.11 1007.90 1007.53 1006.98 1006.28 1005.45 1004.53 1003.56 1002.59 1001.68 1000.87 1000.19
1006.99 1007.15 1007.17 1007.00 1006.60 1006.00 1005.23 1004.34 1003.43 1002.58 1001.88 1001.40 1001.17 1001.22 1001.51 1002.02 1002.68 1003.42 1004.16 1004.87 1005.49 1006.01 1006.44 1006.79 1007.08 1007.35 1007.61 1007.87 1008.12 1008.35 1008.53 1008.60 1008.55 1008.33 1007.95 1007.39 1006.67 1005.84 1004.92 1003.98 1003.06 1002.20 1001.45 1000.82
1007.19 1007.21 1007.07 1006.73 1006.18 1005.42 1004.51 1003.51 1002.51 1001.60 1000.89 1000.42 1000.24 1000.36 1000.75 1001.37 1002.15 1002.99 1003.84 1004.64 1005.35 1005.95 1006.45 1006.87 1007.23 1007.57 1007.90 1008.22 1008.54 1008.81 1009.01 1009.10 1009.05 1008.84 1008.45 1007.90 1007.21 1006.42 1005.57 1004.71 1003.88 1003.13 1002.47 1001.93
1007.23 1007.10 1006.81 1006.33 1005.65 1004.79 1003.79 1002.73 1001.70 1000.79 1000.09 999.66 999.53 999.71 1000.18 1000.87 1001.73 1002.65 1003.59 1004.47 1005.26 1005.95 1006.54 1007.04 1007.48 1007.89 1008.29 1008.67 1009.02 1009.32 1009.54 1009.65 1009.60 1009.40 1009.04 1008.53 1007.90 1007.19 1006.45 1005.71 1005.02 1004.41 1003.88 1003.45
1007.11 1006.84 1006.42 1005.84 1005.07 1004.16 1003.14 1002.08 1001.07 1000.20 999.54 999.16 999.09 999.32 999.83 1000.58 1001.48 1002.46 1003.45 1004.40 1005.26 1006.02 1006.69 1007.27 1007.78 1008.26 1008.71 1009.13 1009.51 1009.83 1010.06 1010.17 1010.15 1009.98 1009.67 1009.24 1008.71 1008.12 1007.51 1006.93 1006.40 1005.94 1005.55 1005.24
1006.85 1006.47 1005.96 1005.31 1004.52 1003.61 1002.62 1001.61 1000.67 999.87 999.29 998.97 998.94 999.22 999.76 1000.52 1001.44 1002.44 1003.46 1004.44 1005.35 1006.17 1006.88 1007.52 1008.09 1008.61 1009.09 1009.53 1009.93 1010.26 1010.50 1010.63 1010.64 1010.53 1010.30 1009.97 1009.57 1009.12 1008.68 1008.26 1007.89 1007.57 1007.32 1007.11
1006.50 1006.04 1005.49 1004.82 1004.05 1003.18 1002.27 1001.36 1000.52 999.83 999.33 999.08 999.11 999.41 999.96 1000.72 1001.62 1002.61 1003.63 1004.61 1005.53 1006.36 1007.11 1007.77 1008.36 1008.89 1009.38 1009.83 1010.22 1010.56 1010.82 1010.98 1011.04 1011.01 1010.88 1010.67 1010.41 1010.13 1009.84 1009.58 1009.36 1009.17 1009.03 1008.91
1006.10 1005.60 1005.04 1004.40 1003.68 1002.91 1002.11 1001.32 1000.61 1000.04 999.64 999.46 999.53 999.84 1000.39 1001.12 1001.99 1002.95 1003.92 1004.88 1005.78 1006.60 1007.34 1007.99 1008.57 1009.10 1009.57 1010.00 1010.39 1010.73 1011.00 1011.21 1011.34 1011.39 1011.38 1011.31 1011.20 1011.06 1010.93 1010.81 1010.70 1010.62 1010.55 1010.49
Thickness
5807 5792 5783 5790 5794 5794 5788 5780 5776 5785 5799 5790 5783 5784 5791 5795 5794 5791 5790 5790 5790 5792 5795 5794 5793 5792 5789 5786 5784 5782 5780 5779 5777 5775 5772 5770 5769 5769 5769 5770 5769 5769 5767 5766
5790 5785 5800 5805 5802 5796 5788 5778 5777 5787 5797 5790 5781 5782 5792 5795 5795 5796 5794 5792 5793 5793 5792 5793 5793 5791 5789 5786 5784 5782 5781 5779 5778 5776 5775 5773 5771 5770 5769 5769 5769 5768 5767 5765
5785 5796 5810 5804 5796 5790 5786 5780 5780 5780 5788 5788 5780 5773 5784 5793 5797 5798 5798 5797 5796 5795 5793 5793 5792 5791 5789 5787 5786 5785 5782 5781 5779 5778 5776 5773 5771 5769 5767 5767 5767 5767 5766 5765
5790 5803 5804 5798 5794 5791 5779 5795 5792 5784 5770 5759 5769 5748 5773 5782 5787 5792 5794 5796 5797 5798 5797 5795 5794 5792 5791 5790 5789 5786 5783 5782 5780 5778 5775 5772 5768 5765 5765 5766 5765 5766 5765 5764
5788 5800 5798 5793 5799 5798 5791 5800 5792 5783 5767 5756 5760 5749 5760 5776 5777 5787 5795 5798 5800 5801 5800 5798 5797 5795 5794 5792 5789 5787 5784 5781 5780 5778 5776 5772 5769 5767 5766 5765 5764 5763 5763 5762
5793 5805 5805 5803 5810 5806 5801 5790 5778 5765 5754 5739 5754 5747 5751 5766 5779 5789 5797 5801 5802 5803 5803 5801 5800 5797 5793 5791 5789 5786 5782 5780 5779 5777 5775 5773 5770 5767 5764 5762 5761 5760 5760 5759
5780 5793 5804 5810 5797 5797 5790 5763 5739 5736 5726 5732 5754 5749 5755 5784 5793 5797 5799 5802 5804 5804 5801 5799 5797 5795 5792 5790 5788 5785 5781 5778 5777 5776 5774 5772 5770 5767 5764 5762 5759 5758 5757 5756
5760 5763 5792 5802 5795 5784 5779 5766 5737 5725 5722 5732 5748 5745 5768 5794 5800 5803 5804 5804 5804 5803 5802 5800 5798 5796 5793 5791 5788 5785 5781 5778 5776 5774 5772 5771 5768 5766 5764 5762 5760 5757 5756 5755
5755 5761 5793 5802 5804 5792 5772 5762 5764 5740 5734 5729 5737 5753 5775 5794 5795 5798 5799 5800 5800 5801 5801 5800 5798 5795 5792 5790 5787 5785 5781 5777 5775 5774 5771 5769 5767 5764 5762 5760 5759 5757 5756 5755
5769 5762 5781 5793 5797 5790 5783 5766 5747 5733 5719 5718 5732 5743 5752 5774 5782 5789 5792 5794 5798 5799 5799 5798 5797 5794 5792 5790 5787 5784 5780 5777 5774 5772 5770 5768 5765 5763 5760 5757 5755 5755 5754 5752
5772 5758 5765 5774 5772 5769 5768 5759 5744 5730 5729 5716 5715 5736 5772 5775 5781 5783 5789 5794 5796 5796 5797 5796 5795 5793 5791 5787 5784 5781 5778 5775 5771 5769 5767 5765 5763 5760 5757 5754 5753 5752 5750 5749
5764 5749 5742 5758 5776 5781 5774 5762 5746 5735 5726 5720 5718 5737 5782 5781 5783 5784 5787 5791 5793 5794 5795 5795 5793 5790 5787 5784 5781 5778 5776 5773 5770 5767 5764 5761 5759 5757 5754 5751 5750 5748 5747 5745
5760 5743 5730 5737 5750 5764 5763 5758 5750 5738 5723 5713 5715 5739 5778 5778 5779 5781 5783 5786 5787 5788 5789 5788 5788 5785 5783 5781 5779 5776 5773 5771 5768 5765 5761 5757 5755 5753 5751 5748 5746 5745 5743 5740
5764 5739 5733 5728 5736 5750 5752 5753 5748 5738 5722 5716 5724 5742 5762 5767 5770 5774 5778 5780 5781 5781 5781 5781 5781 5780 5780 5778 5775 5772 5770 5768 5765 5761 5758 5754 5752 5750 5748 5746 5743 5741 5739 5737
5755 5736 5739 5743 5751 5752 5751 5750 5747 5742 5735 5728 5736 5740 5754 5760 5764 5769 5772 5774 5774 5774 5775 5774 5774 5774 5774 5772 5770 5769 5767 5765 5762 5758 5754 5752 5749 5747 5744 5741 5739 5737 5735 5734
5740 5733 5735 5736 5744 5745 5742 5745 5744 5743 5740 5738 5740 5742 5756 5759 5762 5763 5764 5766 5766 5767 5769 5770 5770 5769 5768 5767 5766 5764 5762 5760 5758 5754 5751 5748 5745 5742 5739 5737 5734 5732 5730 5729
5725 5724 5718 5716 5729 5732 5722 5735 5737 5738 5739 5738 5733 5741 5750 5750 5752 5755 5757 5759 5761 5763 5764 5763 5764 5764 5762 5762 5760 5758 5757 5755 5753 5750 5747 5745 5741 5738 5735 5732 5729 5728 5725 5723
5719 5711 5703 5703 5714 5703 5721 5741 5741 5736 5736 5737 5738 5741 5743 5745 5749 5751 5753 5753 5754 5757 5757 5758 5759 5759 5758 5757 5755 5752 5750 5748 5746 5744 5742 5739 5737 5734 5731 5728 5726 5724 5721 5719
5717 5708 5694 5689 5693 5701 5720 5733 5733 5728 5726 5735 5733 5736 5738 5741 5742 5743 5749 5749 5750 5751 5752 5752 5753 5753 5751 5750 5748 5745 5742 5740 5738 5736 5735 5733 5731 5728 5725 5723 5721 5719 5717 5714
5704 5703 5691 5683 5687 5686 5710 5732 5737 5728 5716 5732 5731 5730 5731 5731 5723 5731 5742 5743 5744 5745 5745 5745 5745 5745 5743 5741 5740 5736 5733 5732 5731 5730 5728 5726 5724 5722 5719 5717 5715 5713 5711 5709
5690 5686 5682 5679 5681 5691 5715 5726 5728 5705 5708 5728 5728 5726 5725 5723 5723 5729 5734 5735 5735 5736 5736 5737 5736 5734 5733 5733 5731 5726 5724 5723 5725 5724 5722 5719 5717 5715 5714 5711 5709 5707 5704 5702
5680 5677 5674 5672 5674 5684 5715 5716 5710 5709 5720 5722 5723 5722 5720 5719 5721 5723 5724 5724 5726 5726 5727 5727 5725 5724 5724 5723 5721 5717 5715 5716 5716 5715 5713 5711 5709 5707 5707 5704 5702 5700 5697 5695
5677 5680 5677 5678 5684 5699 5706 5709 5714 5714 5713 5715 5715 5716 5715 5713 5713 5713 5713 5714 5716 5717 5717 5717 5715 5713 5713 5712 5710 5707 5707 5707 5706 5705 5703 5702 5701 5699 5698 5696 5694 5691 5690 5688
5677 5679 5677 5679 5689 5697 5702 5706 5709 5709 5709 5711 5712 5711 5710 5707 5707 5706 5704 5704 5705 5706 5706 5706 5705 5703 5702 5702 5700 5699 5698 5697 5695 5694 5693 5692 5691 5690 5689 5688 5687 5684 5683 5681
5673 5674 5672 5674 5685 5691 5698 5700 5702 5703 5704 5704 5705 5705 5704 5702 5700 5698 5696 5696 5695 5696 5696 5695 5694 5693 5693 5693 5691 5690 5689 5687 5683 5682 5683 5683 5682 5681 5680 5680 5679 5678 5677 5676
5668 5669 5667 5671 5681 5681 5687 5694 5696 5695 5696 5697 5697 5696 5697 5695 5692 5691 5689 5688 5687 5686 5686 5685 5684 5684 5683 5683 5681 5680 5679 5678 5676 5674 5673 5672 5672 5671 5671 5671 5670 5670 5670 5669